Wind_Speed
25 21 24 38 28 31 22 26 30 32 35 34 35 39 40 40 41 43 45 46 47 49 50 51 50 47 47 49 48 49 49 48 46 47 45 42 41 43 43 41 42 45 41
22 16 16 19 30 28 18 26 32 34 35 35 39 39 38 39 41 44 44 43 45 47 46 46 44 43 45 47 48 49 49 49 47 46 43 42 42 43 43 43 44 43 41
27 27 26 24 29 26 23 30 35 36 39 39 40 37 37 41 41 41 40 41 44 43 41 42 43 44 44 46 49 51 52 53 52 49 44 43 44 44 45 43 40 40 42
29 29 29 24 28 28 25 31 35 38 39 36 34 36 40 37 37 39 39 43 42 41 41 41 42 43 44 47 51 53 53 53 52 46 42 44 44 45 43 39 41 44 46
25 24 23 23 24 24 25 27 28 24 26 33 35 35 33 36 35 36 40 41 40 38 37 38 42 45 48 51 53 55 56 55 52 45 42 44 45 41 38 40 43 44 46
29 26 24 28 20 21 23 23 18 24 36 33 29 30 31 33 34 36 37 37 34 36 38 42 43 47 50 54 57 57 56 56 54 45 42 45 41 37 40 42 42 43 43
30 23 21 23 29 30 29 25 28 31 31 29 30 30 33 35 34 36 35 33 35 40 43 46 49 52 54 57 57 57 55 55 51 44 44 42 38 40 41 41 42 41 40
21 24 22 28 30 28 30 30 28 29 28 29 31 34 35 35 34 33 34 38 40 42 43 47 51 54 56 55 58 56 55 50 45 48 44 40 42 44 42 40 40 42 41
26 24 24 30 30 32 34 34 30 30 28 29 32 34 34 33 32 35 38 40 42 45 48 50 53 55 56 54 56 56 51 44 48 45 41 42 43 41 39 41 46 42 41
27 28 32 33 34 36 33 31 32 31 30 32 33 33 34 32 34 38 40 42 46 49 51 53 55 58 56 56 57 53 45 44 41 37 39 41 39 38 42 44 43 43 41
28 31 33 29 26 29 28 27 28 27 26 30 32 33 33 34 37 40 41 45 49 52 55 57 58 58 57 57 56 52 43 39 35 34 36 35 34 39 45 43 41 39 38
27 29 23 22 24 26 24 24 24 26 28 30 31 33 35 38 40 43 45 49 51 54 57 60 62 64 61 55 53 44 39 33 33 36 37 32 36 42 45 41 40 39 33
16 21 22 21 23 21 22 23 26 28 29 31 33 36 38 40 43 46 50 52 53 57 61 65 66 64 56 50 44 36 32 30 33 37 31 32 37 44 43 42 39 35 29
17 17 17 18 19 20 22 24 27 29 31 33 35 36 40 43 45 49 52 56 59 63 67 64 55 50 46 42 34 31 28 29 34 32 29 31 38 41 39 38 34 31 28
19 18 18 19 21 23 24 25 28 30 32 34 36 40 43 45 48 51 55 58 64 66 62 49 49 46 36 30 28 24 26 29 34 28 29 33 38 36 36 33 30 28 27
19 20 21 23 25 24 25 27 29 30 33 36 39 42 43 47 51 54 58 64 66 61 50 45 41 34 26 24 24 23 23 29 27 25 28 32 34 32 33 29 28 26 23
23 25 27 27 27 24 24 27 30 34 37 38 41 43 48 51 54 59 64 64 54 45 40 36 28 25 22 21 19 19 22 26 20 24 24 30 31 30 32 26 25 24 22
24 25 24 22 22 24 28 32 36 38 37 38 43 47 50 55 60 61 55 48 41 37 33 23 22 20 18 16 16 17 23 20 20 20 27 29 29 27 28 23 21 20 19
20 20 22 24 25 29 33 35 34 35 38 43 45 49 54 59 55 46 43 39 34 31 21 22 18 18 15 13 13 17 19 15 17 19 26 27 27 26 25 23 20 18 17
21 23 26 29 32 32 30 32 35 39 43 47 51 55 54 46 42 40 39 33 28 23 20 15 18 16 11 11 12 16 15 14 16 19 24 23 26 22 22 20 18 16 17
24 27 29 28 27 29 33 36 39 42 46 51 53 46 39 38 37 35 35 28 26 19 11 15 16 14 9 9 11 14 10 13 16 20 17 22 22 25 22 19 17 17 19
27 24 24 27 30 33 36 39 42 46 48 45 40 36 34 32 33 31 28 22 18 14 13 15 15 13 9 9 9 11 8 12 15 18 12 19 21 27 21 17 17 18 20
24 25 28 31 34 37 40 44 46 43 38 34 32 31 31 30 28 28 23 17 18 12 14 14 12 12 8 6 7 10 7 10 12 13 10 15 22 28 23 18 20 20 19
27 29 32 35 38 41 44 42 37 31 30 28 28 28 28 27 27 25 21 14 17 10 14 12 10 10 9 6 5 7 7 8 8 9 9 10 12 16 20 15 17 17 18
31 34 37 39 42 41 36 32 29 28 27 26 26 25 24 25 25 24 20 16 13 11 8 9 8 7 8 6 5 4 4 4 5 8 5 9 8 11 13 12 8 10 12
35 37 38 38 34 32 30 28 26 26 25 24 24 23 22 22 23 22 21 19 15 14 11 8 5 7 6 6 6 6 4 2 2 3 5 4 7 9 10 14 15 5 5
Wind_Direction
278 273 265 262 237 244 257 279 279 282 286 294 294 293 297 296 295 297 300 303 303 308 310 309 309 308 307 306 306 308 309 308 311 313 311 305 304 305 306 304 304 300 294
258 245 246 233 238 281 284 271 278 284 289 287 289 294 294 293 296 299 302 303 306 308 311 312 310 309 308 308 310 311 310 311 315 314 308 305 305 307 305 305 302 295 291
242 254 256 248 268 263 267 268 273 281 283 288 291 287 287 289 297 304 302 303 307 312 313 309 311 311 312 314 315 315 315 316 315 315 309 306 308 308 305 301 297 294 292
247 250 261 264 271 270 265 271 276 282 285 284 280 285 290 301 301 302 303 307 311 313 313 315 316 318 322 320 320 319 320 318 316 312 309 308 308 305 303 302 301 299 297
248 252 258 269 281 274 276 278 279 281 279 282 286 295 299 300 303 302 305 307 311 314 316 319 322 324 323 320 319 319 320 320 315 311 310 308 303 303 303 302 302 301 301
253 259 284 289 286 275 290 285 280 279 286 284 293 295 302 303 303 306 306 311 316 316 316 318 319 318 320 319 321 320 319 319 316 312 308 305 305 301 304 303 305 302 303
258 269 283 267 276 274 286 282 284 287 289 288 291 290 299 301 303 307 311 312 312 316 319 319 318 321 321 321 322 320 317 315 317 313 308 309 305 305 309 311 308 305 302
260 265 271 274 275 273 287 285 290 283 285 285 289 292 297 299 306 305 307 311 316 320 321 324 324 323 323 321 321 317 317 318 316 310 313 310 311 313 313 312 309 306 302
270 265 276 276 274 279 283 281 270 278 282 287 292 292 294 305 305 305 310 314 318 322 324 323 324 322 322 319 318 317 319 316 312 313 311 313 315 315 314 314 312 309 307
272 269 278 279 277 278 282 275 276 277 278 288 288 296 303 304 302 307 311 314 321 324 324 322 322 323 320 316 317 317 317 312 309 308 314 316 317 319 319 318 316 316 312
264 268 267 271 262 267 271 271 273 274 282 289 296 301 303 303 304 309 315 321 324 325 321 320 321 320 317 314 315 317 315 310 308 316 317 317 325 324 326 321 321 318 312
260 261 272 263 253 261 265 274 283 287 293 298 300 303 302 305 311 316 320 324 323 321 320 319 318 316 314 311 312 315 313 310 316 322 320 324 326 327 328 325 325 321 319
282 253 262 257 256 267 279 286 293 294 297 300 302 304 306 314 318 321 323 321 319 318 317 316 314 312 309 308 312 312 310 310 323 327 325 326 326 329 330 330 328 328 325
260 251 255 263 270 279 288 294 296 297 300 302 305 312 318 317 320 321 320 319 317 316 317 317 313 310 309 312 311 312 308 314 325 328 329 331 333 332 334 333 334 335 336
254 264 273 280 284 288 295 299 299 303 307 310 316 319 319 319 320 319 317 317 319 320 318 313 313 311 312 311 311 307 311 324 331 334 332 331 334 338 339 340 343 345 346
285 285 286 290 292 294 301 307 308 310 311 316 318 318 319 319 316 315 317 318 320 318 314 311 311 310 312 313 309 312 327 331 335 338 335 337 343 345 347 348 352 360 3
278 284 286 286 287 295 303 306 310 313 315 317 316 317 318 316 316 316 319 320 318 316 317 315 313 312 314 310 309 322 333 335 341 339 341 345 351 350 355 359 6 12 22
277 278 279 282 291 299 305 309 312 313 314 315 317 317 317 317 318 321 321 319 319 318 319 313 315 313 312 310 320 334 338 341 347 352 353 354 355 354 1 8 16 22 33
274 280 286 291 298 303 308 311 311 312 313 316 317 316 316 318 321 322 321 320 320 322 315 324 321 320 315 316 333 338 345 349 354 353 356 358 3 4 6 17 21 29 41
286 292 298 304 305 306 306 307 308 313 318 317 314 314 321 322 321 323 321 321 323 321 325 321 324 326 314 333 339 344 351 360 1 359 4 8 16 16 18 24 28 38 51
296 298 301 302 299 298 303 307 312 314 314 314 318 322 321 323 324 322 322 321 325 326 322 326 329 331 320 341 341 352 358 9 7 11 16 20 24 27 27 33 40 52 65
296 294 293 294 298 301 304 306 308 312 315 318 320 321 324 323 325 324 325 323 325 320 330 328 328 336 324 342 337 358 4 17 19 19 29 29 26 30 34 40 52 64 74
290 291 291 294 299 303 305 308 312 316 318 319 320 323 325 329 329 330 328 323 325 312 330 326 327 334 332 338 328 354 3 16 24 19 41 36 54 44 42 54 68 69 74
287 288 294 301 304 305 308 312 315 316 318 319 320 324 325 326 331 327 322 322 327 328 333 325 329 334 335 327 310 350 5 11 25 22 45 63 52 46 49 71 72 69 71
288 294 300 302 304 308 312 314 315 317 317 317 319 322 327 328 330 331 325 319 312 302 321 340 336 348 327 337 312 313 354 2 33 28 53 72 64 40 45 48 38 71 70
294 298 302 306 309 310 312 313 313 312 311 312 313 315 320 323 329 332 333 329 299 288 269 280 322 352 335 335 331 294 287 360 30 56 33 55 72 53 46 40 47 64 65
Height
5777 5781 5784 5786 5788 5787 5787 5788 5789 5789 5789 5789 5789 5787 5785 5783 5776 5772 5769 5764 5760 5753 5746 5740 5733 5727 5720 5715 5709 5702 5696 5691 5684 5675 5669 5663 5658 5653 5648 5645 5640 5636 5633
5777 5776 5778 5779 5781 5778 5781 5782 5782 5781 5783 5782 5781 5780 5775 5772 5769 5765 5760 5757 5751 5743 5736 5730 5725 5718 5714 5706 5699 5693 5687 5679 5671 5665 5656 5651 5647 5642 5636 5632 5627 5623 5620
5770 5770 5770 5772 5774 5776 5775 5777 5777 5777 5776 5776 5775 5772 5767 5764 5760 5756 5752 5747 5740 5734 5728 5724 5717 5711 5704 5695 5690 5684 5676 5666 5658 5653 5646 5640 5635 5631 5625 5619 5615 5611 5608
5761 5761 5763 5765 5768 5769 5771 5773 5774 5773 5771 5771 5768 5763 5759 5755 5751 5746 5741 5736 5730 5724 5719 5714 5709 5702 5694 5688 5681 5673 5663 5654 5646 5640 5634 5629 5623 5617 5612 5608 5602 5598 5594
5754 5756 5759 5761 5761 5763 5764 5764 5764 5761 5762 5763 5757 5754 5751 5745 5740 5735 5731 5728 5720 5714 5711 5707 5699 5691 5685 5679 5671 5660 5651 5643 5635 5629 5622 5617 5610 5605 5600 5596 5591 5585 5579
5748 5748 5751 5752 5753 5754 5754 5753 5754 5754 5753 5751 5745 5745 5738 5735 5732 5728 5723 5717 5711 5708 5703 5695 5689 5683 5675 5666 5656 5646 5640 5633 5625 5619 5612 5605 5599 5595 5590 5584 5578 5573 5566
5740 5743 5744 5746 5748 5748 5748 5748 5746 5746 5745 5741 5738 5734 5729 5728 5723 5719 5713 5709 5705 5699 5692 5686 5681 5674 5664 5654 5644 5635 5626 5619 5613 5607 5601 5594 5590 5584 5579 5571 5565 5560 5554
5732 5734 5738 5740 5741 5741 5740 5741 5742 5740 5737 5735 5729 5727 5724 5718 5714 5712 5706 5702 5695 5690 5685 5678 5670 5661 5653 5644 5635 5625 5617 5610 5602 5596 5590 5584 5578 5572 5565 5560 5554 5547 5540
5725 5727 5728 5731 5734 5734 5734 5736 5734 5731 5729 5727 5722 5720 5715 5710 5706 5702 5695 5690 5685 5681 5674 5667 5657 5650 5643 5636 5628 5619 5609 5600 5594 5587 5581 5576 5569 5561 5555 5549 5540 5534 5528
5716 5719 5723 5724 5726 5727 5726 5725 5723 5722 5719 5717 5715 5709 5704 5700 5698 5693 5686 5681 5675 5668 5660 5651 5647 5639 5633 5627 5619 5611 5602 5595 5588 5581 5574 5567 5560 5552 5544 5536 5528 5521 5514
5711 5713 5715 5716 5718 5719 5718 5717 5715 5713 5709 5707 5705 5701 5698 5693 5690 5684 5678 5670 5662 5653 5647 5639 5634 5629 5622 5616 5609 5601 5594 5588 5583 5575 5568 5560 5551 5543 5535 5525 5517 5509 5503
5705 5706 5708 5709 5711 5711 5710 5708 5706 5704 5701 5700 5697 5693 5690 5686 5681 5674 5667 5659 5653 5647 5639 5632 5625 5619 5612 5605 5598 5592 5585 5580 5574 5566 5559 5552 5545 5536 5526 5517 5508 5500 5493
5702 5702 5703 5704 5704 5704 5702 5701 5699 5698 5695 5692 5689 5686 5682 5675 5668 5662 5655 5649 5644 5638 5632 5625 5615 5606 5600 5594 5589 5584 5579 5574 5567 5560 5552 5546 5539 5530 5520 5510 5502 5493 5486
5700 5699 5699 5699 5699 5698 5697 5695 5694 5692 5688 5685 5681 5676 5669 5665 5658 5651 5644 5638 5632 5626 5620 5612 5604 5596 5590 5585 5581 5577 5573 5567 5561 5554 5547 5542 5534 5524 5515 5506 5497 5488 5481
5695 5694 5694 5693 5693 5692 5690 5688 5686 5683 5680 5676 5671 5667 5662 5655 5649 5643 5636 5630 5622 5614 5607 5600 5594 5588 5582 5578 5575 5572 5568 5561 5555 5549 5544 5538 5530 5520 5512 5502 5493 5485 5477
5687 5687 5687 5687 5687 5686 5682 5680 5678 5676 5673 5668 5663 5658 5653 5647 5642 5636 5628 5620 5611 5603 5596 5591 5585 5581 5577 5573 5570 5567 5562 5557 5552 5547 5542 5536 5527 5519 5510 5500 5492 5485 5478
5684 5684 5683 5682 5681 5679 5676 5674 5671 5668 5664 5659 5656 5650 5645 5639 5633 5625 5617 5610 5601 5594 5588 5583 5579 5576 5573 5570 5568 5564 5559 5555 5550 5546 5541 5534 5525 5518 5509 5501 5494 5488 5483
5678 5678 5677 5676 5674 5672 5670 5667 5664 5660 5657 5653 5647 5641 5635 5629 5622 5614 5607 5600 5594 5588 5583 5578 5576 5573 5570 5567 5565 5561 5558 5553 5549 5545 5539 5533 5525 5518 5511 5504 5498 5493 5489
5675 5674 5672 5671 5669 5666 5662 5659 5656 5653 5648 5643 5637 5632 5626 5620 5613 5606 5600 5594 5588 5582 5578 5576 5574 5570 5567 5566 5563 5560 5556 5553 5550 5545 5539 5533 5526 5519 5514 5508 5503 5498 5495
5668 5666 5664 5662 5659 5657 5655 5652 5649 5644 5638 5634 5629 5623 5617 5612 5605 5599 5593 5588 5583 5579 5576 5574 5571 5568 5566 5564 5562 5559 5556 5553 5549 5545 5540 5535 5529 5523 5517 5513 5509 5505 5502
5660 5659 5657 5655 5653 5651 5649 5644 5639 5635 5630 5625 5620 5615 5609 5604 5598 5592 5588 5583 5580 5577 5575 5572 5570 5567 5565 5563 5561 5559 5557 5554 5550 5547 5543 5539 5533 5528 5522 5518 5515 5512 5509
5654 5653 5651 5650 5647 5644 5640 5636 5631 5627 5622 5618 5613 5608 5603 5598 5592 5588 5583 5580 5577 5575 5573 5571 5568 5566 5564 5563 5562 5560 5557 5555 5551 5549 5546 5542 5538 5533 5528 5524 5521 5519 5517
5649 5647 5644 5642 5639 5635 5631 5627 5623 5619 5615 5610 5605 5601 5597 5593 5588 5584 5580 5577 5575 5573 5571 5570 5567 5565 5563 5562 5561 5560 5557 5555 5553 5551 5549 5546 5543 5538 5534 5531 5529 5527 5525
5641 5639 5636 5632 5629 5626 5623 5619 5615 5611 5607 5603 5600 5596 5593 5589 5585 5581 5578 5575 5573 5572 5570 5568 5566 5564 5563 5561 5561 5559 5558 5556 5555 5553 5551 5549 5547 5544 5542 5539 5537 5535 5533
5633 5630 5627 5624 5621 5617 5614 5611 5608 5604 5601 5599 5596 5592 5589 5586 5582 5578 5575 5572 5571 5569 5569 5567 5565 5563 5562 5561 5560 5559 5558 5557 5555 5554 5552 5551 5550 5548 5546 5544 5542 5540 5539
5624 5621 5618 5615 5612 5609 5606 5603 5600 5598 5595 5593 5591 5588 5585 5583 5579 5576 5572 5569 5567 5566 5565 5564 5563 5562 5561 5560 5559 5558 5558 5557 5556 5555 5554 5553 5551 5550 5549 5547 5545 5544 5543